Weather History for K36U - October, 2012

Change the Weather History Date:

Sunday, October 21, 2012

  Actual Average (WUND) Record (WUND)
Temperature  
Mean Temperature 53 °F -  
Max Temperature 64 °F - - (-1)
Min Temperature 42 °F - - (-1)
Degree Days  
Heating Degree Days 12    
Growing Degree Days 3 (Base 50)    
Moisture  
Dew Point 33 °F    
Average Humidity 47    
Maximum Humidity 76    
Minimum Humidity 23    
Precipitation  
Precipitation 0.00 in - - ()
Sea Level Pressure  
Sea Level Pressure 29.82 in    
Wind  
Wind Speed 7 mph (South)    
Max Wind Speed 21 mph    
Max Gust Speed 26 mph    
Visibility 10 miles    
Events Rain    
Averages and records for this station are not official NWS values.
T = Trace of Precipitation, MM = Missing Value Source: NWS Daily Summary

Daily Weather History Graph

Daily Weather History Graph

Search for Another Location

Airport or City:

Trip Planner

Search our weather history database for the weather conditions in past years. The results will help you decide how hot, cold, wet, or windy it might be!

Date:

Astronomy

Oct. 21, 2012 Rise Set
Actual Time 7:43 AM MDT 6:36 PM MDT
Civil Twilight 7:16 AM MDT 7:03 PM MDT
Nautical Twilight 6:44 AM MDT 7:35 PM MDT
Astronomical Twilight 6:12 AM MDT 8:07 PM MDT
Moon 2:07 PM MDT (10/21) No Moon Set
Length of Visible Light 11h 47m
Length of Day
10h 52m
Waxing Crescent, 46% of the Moon is Illuminated
Oct 21
Waxing Crescent
Oct 21
First Quarter
Oct 29
Full
Nov 6
Last Quarter
Nov 13
New

Hourly Weather History & Observations

Time (MDT) Temp. Windchill Dew Point Humidity Pressure Visibility Wind Dir Wind Speed Gust Speed Precip Events Conditions
12:15 AM 59.0 °F - 21.2 °F 23% 29.79 in 10.0 mi WSW 10.4 mph - N/A   Clear
12:35 AM 57.2 °F - 21.2 °F 25% 29.79 in 10.0 mi WSW 6.9 mph - N/A   Clear
12:55 AM 57.2 °F - 21.2 °F 25% 29.79 in 10.0 mi WSW 9.2 mph - N/A   Clear
1:15 AM 55.4 °F - 21.2 °F 26% 29.79 in 10.0 mi SW 6.9 mph - N/A   Clear
1:35 AM 55.4 °F - 23.0 °F 29% 29.80 in 10.0 mi Calm Calm - N/A   Clear
1:55 AM 53.6 °F - 21.2 °F 28% 29.80 in 10.0 mi Calm Calm - N/A   Clear
2:15 AM 53.6 °F - 23.0 °F 30% 29.81 in 10.0 mi Calm Calm - N/A   Clear
2:35 AM 48.2 °F - 23.0 °F 37% 29.81 in 10.0 mi East 5.8 mph - N/A   Clear
2:55 AM 46.4 °F 42.9 °F 23.0 °F 40% 29.82 in 10.0 mi ESE 6.9 mph - N/A   Clear
3:15 AM 44.6 °F 42.2 °F 24.8 °F 46% 29.81 in 10.0 mi ESE 4.6 mph - N/A   Clear
3:35 AM 44.6 °F 42.2 °F 24.8 °F 46% 29.81 in 10.0 mi ESE 4.6 mph - N/A   Clear
4:15 AM 44.6 °F 40.2 °F 24.8 °F 46% 29.81 in 10.0 mi ESE 8.1 mph - N/A   Clear
4:55 AM 44.6 °F 41.4 °F 26.6 °F 49% 29.80 in 10.0 mi East 5.8 mph - N/A   Clear
5:15 AM 42.8 °F 38.6 °F 26.6 °F 53% 29.81 in 10.0 mi East 6.9 mph - N/A   Clear
5:35 AM 44.6 °F 40.2 °F 26.6 °F 49% 29.82 in 10.0 mi East 8.1 mph - N/A   Clear
5:55 AM 44.6 °F 41.4 °F 26.6 °F 49% 29.82 in 10.0 mi ESE 5.8 mph - N/A   Clear
6:15 AM 44.6 °F 42.2 °F 26.6 °F 49% 29.82 in 10.0 mi SE 4.6 mph - N/A   Clear
6:35 AM 42.8 °F 40.1 °F 26.6 °F 53% 29.82 in 10.0 mi East 4.6 mph - N/A   Clear
6:55 AM 46.4 °F 42.9 °F 26.6 °F 46% 29.82 in 10.0 mi East 6.9 mph - N/A   Clear
7:15 AM 44.6 °F 42.2 °F 28.4 °F 53% 29.83 in 10.0 mi ESE 4.6 mph - N/A   Clear
7:35 AM 44.6 °F 40.2 °F 28.4 °F 53% 29.83 in 10.0 mi East 8.1 mph - N/A   Clear
7:55 AM 44.6 °F 40.7 °F 28.4 °F 53% 29.84 in 10.0 mi ESE 6.9 mph - N/A   Clear
8:35 AM 48.2 °F - 30.2 °F 50% 29.85 in 10.0 mi East 6.9 mph - N/A   Clear
8:55 AM 53.6 °F - 30.2 °F 41% 29.85 in 10.0 mi Calm Calm - N/A   Clear
9:15 AM 57.2 °F - 30.2 °F 36% 29.85 in 10.0 mi East 4.6 mph - N/A   Clear
9:35 AM 59.0 °F - 28.4 °F 31% 29.85 in 10.0 mi Calm Calm - N/A   Clear
9:55 AM 60.8 °F - 32.0 °F 34% 29.84 in 10.0 mi WSW 13.8 mph - N/A   Clear
10:15 AM 62.6 °F - 32.0 °F 32% 29.84 in 10.0 mi WSW 15.0 mph - N/A   Clear
10:35 AM 62.6 °F - 32.0 °F 32% 29.84 in 10.0 mi WSW 19.6 mph 25.3 mph N/A   Clear
10:55 AM 62.6 °F - 32.0 °F 32% 29.84 in 10.0 mi WSW 20.7 mph 24.2 mph N/A   Clear
11:15 AM 62.6 °F - 32.0 °F 32% 29.84 in 10.0 mi WSW 19.6 mph 26.5 mph N/A   Clear
11:35 AM 62.6 °F - 32.0 °F 32% 29.84 in 10.0 mi SW 19.6 mph 25.3 mph N/A   Clear
11:55 AM 64.4 °F - 33.8 °F 32% 29.83 in 10.0 mi SW 18.4 mph 25.3 mph N/A   Clear
12:15 PM 62.6 °F - 32.0 °F 32% 29.82 in 10.0 mi WSW 15.0 mph 20.7 mph N/A   Clear
12:35 PM 62.6 °F - 33.8 °F 34% 29.82 in 10.0 mi WSW 16.1 mph 24.2 mph N/A   Scattered Clouds
12:55 PM 60.8 °F - 33.8 °F 36% 29.83 in 10.0 mi WSW 16.1 mph 23.0 mph N/A   Mostly Cloudy
1:15 PM 60.8 °F - 33.8 °F 36% 29.82 in 10.0 mi SW 17.3 mph 21.9 mph N/A   Overcast
1:35 PM 60.8 °F - 35.6 °F 39% 29.82 in 10.0 mi SW 10.4 mph 19.6 mph N/A   Overcast
1:55 PM 59.0 °F - 35.6 °F 42% 29.82 in 10.0 mi SSW 13.8 mph 18.4 mph N/A Rain Light Rain
2:15 PM 59.0 °F - 37.4 °F 45% 29.82 in 10.0 mi SW 16.1 mph 25.3 mph N/A Rain Light Rain
2:35 PM 60.8 °F - 37.4 °F 42% 29.81 in 10.0 mi South 8.1 mph - N/A Rain Light Rain
2:55 PM 60.8 °F - 35.6 °F 39% 29.82 in 10.0 mi SSW 13.8 mph 24.2 mph N/A   Mostly Cloudy
3:15 PM 60.8 °F - 35.6 °F 39% 29.82 in 10.0 mi South 9.2 mph 17.3 mph N/A   Overcast
3:35 PM 60.8 °F - 37.4 °F 42% 29.82 in 10.0 mi SW 3.5 mph - N/A   Overcast
3:55 PM 60.8 °F - 37.4 °F 42% 29.82 in 10.0 mi SSE 6.9 mph - N/A   Overcast
4:15 PM 59.0 °F - 35.6 °F 42% 29.82 in 10.0 mi SSE 6.9 mph - N/A   Overcast
4:35 PM 59.0 °F - 35.6 °F 42% 29.81 in 10.0 mi South 5.8 mph - N/A   Overcast
4:55 PM 60.8 °F - 33.8 °F 36% 29.81 in 10.0 mi South 5.8 mph - N/A   Overcast
5:15 PM 60.8 °F - 33.8 °F 36% 29.81 in 10.0 mi West 4.6 mph - N/A   Overcast
5:35 PM 55.4 °F - 41.0 °F 58% 29.81 in 10.0 mi North 5.8 mph - N/A   Overcast
5:55 PM 55.4 °F - 41.0 °F 58% 29.82 in 10.0 mi North 3.5 mph - N/A Rain Light Rain
6:15 PM 55.4 °F - 41.0 °F 58% 29.82 in 10.0 mi North 8.1 mph - N/A Rain Light Rain
6:35 PM 55.4 °F - 41.0 °F 58% 29.82 in 10.0 mi SSE 8.1 mph - N/A Rain Light Rain
6:55 PM 53.6 °F - 41.0 °F 62% 29.81 in 10.0 mi East 6.9 mph - N/A   Overcast
7:15 PM 53.6 °F - 41.0 °F 62% 29.81 in 10.0 mi East 4.6 mph - N/A Rain Light Rain
7:35 PM 53.6 °F - 42.8 °F 67% 29.82 in 10.0 mi NE 4.6 mph - N/A Rain Light Rain
7:55 PM 51.8 °F - 42.8 °F 71% 29.81 in 10.0 mi Calm Calm - N/A Rain Light Rain
8:15 PM 51.8 °F - 44.6 °F 76% 29.81 in 10.0 mi Calm Calm - N/A   Overcast
8:35 PM 50.0 °F - 42.8 °F 76% 29.81 in 10.0 mi Calm Calm - N/A   Overcast
9:15 PM 50.0 °F - 42.8 °F 76% 29.82 in 10.0 mi Calm Calm - N/A   Overcast
9:35 PM 50.0 °F - 42.8 °F 76% 29.82 in 10.0 mi South 3.5 mph - N/A   Light Drizzle
9:55 PM 51.8 °F - 42.8 °F 71% 29.82 in 10.0 mi Calm Calm - N/A   Overcast
10:35 PM 51.8 °F - 41.0 °F 67% 29.82 in 10.0 mi Calm Calm - N/A   Overcast
10:55 PM 50.0 °F - 42.8 °F 76% 29.82 in 10.0 mi Calm Calm - N/A   Overcast
11:35 PM 50.0 °F - 42.8 °F 76% 29.81 in 10.0 mi Calm Calm - N/A   Overcast
11:55 PM 51.8 °F - 42.8 °F 71% 29.81 in 10.0 mi SSW 6.9 mph - N/A Rain Light Rain